TimeCST,TemperatureF,Dew PointF,Humidity,Sea Level PressureIn,VisibilityMPH,Wind Direction,Wind SpeedMPH,Gust SpeedMPH,PrecipitationIn,Events,Conditions,WindDirDegrees,DateUTC
12:53 AM,68.0,64.9,90,30.04,10.0,SSE,9.2,-,N/A,,Overcast,160,2013-01-29 06:53:00
1:53 AM,68.0,64.9,90,30.02,10.0,SSE,9.2,-,N/A,,Overcast,160,2013-01-29 07:53:00
2:29 AM,66.2,64.4,94,30.00,10.0,SSE,8.1,-,N/A,,Overcast,160,2013-01-29 08:29:00
2:53 AM,66.9,64.0,90,30.01,10.0,SSE,9.2,-,N/A,,Mostly Cloudy,150,2013-01-29 08:53:00
3:02 AM,66.2,64.4,94,29.99,10.0,SSE,10.4,-,N/A,,Mostly Cloudy,150,2013-01-29 09:02:00
3:17 AM,66.2,64.4,94,29.98,10.0,SSE,11.5,-,N/A,,Overcast,160,2013-01-29 09:17:00
3:31 AM,66.2,64.4,94,29.98,10.0,SSE,9.2,-,N/A,,Overcast,160,2013-01-29 09:31:00
3:53 AM,66.9,64.0,90,29.99,10.0,SSE,10.4,-,N/A,,Overcast,160,2013-01-29 09:53:00
4:53 AM,66.9,64.0,90,29.96,10.0,SSE,11.5,-,N/A,,Mostly Cloudy,160,2013-01-29 10:53:00
6:53 AM,68.0,64.9,90,29.96,10.0,SSE,9.2,-,N/A,,Mostly Cloudy,160,2013-01-29 12:53:00
7:45 AM,68.0,64.4,88,29.95,10.0,SSE,8.1,-,N/A,,Overcast,160,2013-01-29 13:45:00
7:53 AM,68.0,64.9,90,29.96,10.0,SSE,9.2,-,N/A,,Overcast,150,2013-01-29 13:53:00
8:53 AM,69.1,64.9,87,29.96,10.0,SSE,9.2,-,N/A,,Overcast,150,2013-01-29 14:53:00
9:53 AM,69.1,66.0,90,29.95,10.0,SE,8.1,-,N/A,,Overcast,130,2013-01-29 15:53:00
10:53 AM,71.1,66.0,84,29.92,10.0,SSE,10.4,21.9,N/A,,Overcast,160,2013-01-29 16:53:00
11:50 AM,73.4,66.2,78,29.87,10.0,SSE,20.7,24.2,N/A,,Mostly Cloudy,150,2013-01-29 17:50:00
11:53 AM,75.0,66.0,73,29.87,10.0,SSE,19.6,25.3,N/A,,Mostly Cloudy,160,2013-01-29 17:53:00
12:32 PM,75.2,66.2,73,29.82,10.0,South,17.3,27.6,N/A,,Mostly Cloudy,170,2013-01-29 18:32:00
12:53 PM,75.9,66.0,71,29.80,10.0,South,19.6,28.8,N/A,,Overcast,170,2013-01-29 18:53:00
1:19 PM,75.2,66.2,73,29.78,10.0,SSE,18.4,28.8,N/A,,Overcast,160,2013-01-29 19:19:00
1:35 PM,75.2,66.2,73,29.77,10.0,South,18.4,29.9,N/A,,Overcast,180,2013-01-29 19:35:00
1:53 PM,75.9,66.0,71,29.78,10.0,South,18.4,27.6,N/A,,Overcast,180,2013-01-29 19:53:00
2:45 PM,73.4,66.2,78,29.75,10.0,SSE,12.7,19.6,0.00,Rain,Light Rain,160,2013-01-29 20:45:00
2:53 PM,73.9,66.9,79,29.76,9.0,SSE,13.8,20.7,0.00,Rain,Light Rain,160,2013-01-29 20:53:00
3:10 PM,73.4,69.8,88,29.74,5.0,South,11.5,-,0.04,Rain,Light Rain,170,2013-01-29 21:10:00
3:19 PM,71.6,69.8,94,29.73,1.8,SSE,16.1,20.7,0.14,Rain,Rain,150,2013-01-29 21:19:00
3:26 PM,71.6,69.8,94,29.73,1.2,South,12.7,24.2,0.20,Rain,Heavy Rain,180,2013-01-29 21:26:00
3:30 PM,71.6,69.8,94,29.73,3.0,South,8.1,19.6,0.20,Rain,Light Rain,170,2013-01-29 21:30:00
3:53 PM,73.0,70.0,90,29.73,10.0,South,8.1,17.3,0.20,,Overcast,170,2013-01-29 21:53:00
4:06 PM,73.4,69.8,88,29.72,10.0,South,9.2,-,N/A,,Overcast,170,2013-01-29 22:06:00
4:31 PM,73.4,69.8,88,29.71,9.0,South,9.2,18.4,0.00,Rain,Light Rain,170,2013-01-29 22:31:00
4:47 PM,71.6,69.8,94,29.70,2.0,SSE,8.1,-,0.09,Rain-Thunderstorm,Heavy Thunderstorms and Rain,160,2013-01-29 22:47:00
4:53 PM,72.0,70.0,93,29.69,1.0,SSE,13.8,17.3,0.22,Rain-Thunderstorm,Heavy Thunderstorms and Rain,150,2013-01-29 22:53:00
5:02 PM,71.6,69.8,94,29.70,2.0,SSW,15.0,-,0.06,Rain,Rain,200,2013-01-29 23:02:00
5:04 PM,71.6,71.6,100,29.70,3.0,South,13.8,-,0.06,Rain,Rain,190,2013-01-29 23:04:00
5:53 PM,73.0,70.0,90,29.68,10.0,South,13.8,20.7,0.07,Rain,Light Rain,170,2013-01-29 23:53:00
6:53 PM,73.9,70.0,87,29.68,10.0,South,16.1,26.5,0.01,Rain,Light Rain,170,2013-01-30 00:53:00
7:53 PM,73.9,69.1,85,29.66,10.0,South,19.6,34.5,0.00,,Overcast,170,2013-01-30 01:53:00
8:48 PM,73.4,69.8,88,29.65,9.0,South,20.7,29.9,0.02,Rain-Thunderstorm,Light Rain,180,2013-01-30 02:48:00
8:53 PM,73.0,69.1,87,29.66,9.0,South,20.7,31.1,0.03,Rain-Thunderstorm,Light Rain,180,2013-01-30 02:53:00
9:14 PM,73.4,69.8,88,29.64,10.0,South,20.7,28.8,0.00,Rain,Light Rain,180,2013-01-30 03:14:00
9:53 PM,73.0,69.1,87,29.66,10.0,SSW,17.3,32.2,0.01,,Overcast,200,2013-01-30 03:53:00
10:20 PM,73.4,68.0,83,29.66,10.0,South,21.9,35.7,0.00,,Overcast,190,2013-01-30 04:20:00
10:53 PM,73.0,68.0,84,29.67,10.0,South,21.9,33.4,0.00,Rain,Light Rain,190,2013-01-30 04:53:00
11:41 PM,71.6,68.0,88,29.65,10.0,South,16.1,29.9,0.01,Rain,Light Rain,190,2013-01-30 05:41:00
11:53 PM,72.0,68.0,87,29.66,10.0,SSW,13.8,23.0,0.01,Rain,Light Rain,200,2013-01-30 05:53:00